GFSSE_sfc_thetae_000.txt.gz
Theta_e
342 345 350 352 351 351 350 351 350 350 350 351 350 349 347 347 346 345 345 345 345 344 343 344 346 346 345 347 349 347 347 348 346 347 348 348 344 347 346 349 347 341 345
345 345 350 351 351 351 351 351 352 352 351 350 349 348 348 347 346 343 343 344 344 344 344 345 346 346 348 349 347 346 346 346 347 346 346 346 345 343 344 347 346 340 342
343 345 348 350 351 351 351 352 352 352 351 350 349 348 347 346 344 343 342 343 342 343 344 344 344 345 344 343 343 344 344 345 343 345 346 335 334 343 341 343 346 346 345
345 347 348 350 351 351 351 351 350 351 349 349 348 348 346 345 343 342 341 341 341 341 341 341 340 343 342 341 341 341 342 342 342 343 338 332 337 341 342 345 346 347 345
348 349 350 349 350 351 352 351 350 350 349 349 348 347 345 343 341 339 339 340 339 339 339 339 338 337 337 338 339 340 341 341 341 338 333 333 334 335 339 341 345 346 344
345 348 347 346 348 351 351 350 349 348 347 347 346 345 343 341 339 339 338 336 335 335 335 336 336 337 337 338 338 338 338 339 339 332 329 334 330 332 339 342 342 343 344
341 346 347 344 347 348 348 347 347 346 345 344 343 342 341 339 337 336 335 334 333 332 332 332 331 332 333 334 334 335 336 336 333 330 333 331 329 333 337 337 338 339 341
336 342 343 346 345 345 345 345 344 343 343 343 342 339 339 337 336 335 334 333 331 331 330 329 328 329 330 330 331 333 333 333 331 329 332 334 330 328 336 337 337 337 337
332 332 336 339 340 341 340 341 341 341 341 340 339 338 337 336 335 333 332 331 330 329 328 328 327 326 326 328 329 330 330 331 328 329 330 330 337 336 335 338 337 336 335
332 333 335 336 336 336 337 338 339 339 339 338 338 337 337 336 335 333 332 330 328 327 327 326 325 325 325 326 328 329 328 328 324 327 328 328 335 335 335 336 336 338 337
328 334 335 335 336 338 336 336 338 339 338 338 337 336 334 336 334 331 331 331 330 329 328 326 325 324 325 326 328 328 328 321 324 322 327 331 331 332 334 334 334 334 336
328 331 337 336 336 334 330 335 337 335 336 337 336 336 336 334 333 331 332 332 332 331 330 329 327 327 326 322 320 326 323 322 320 319 323 328 326 327 331 333 333 333 334
329 331 337 340 339 336 333 333 333 334 334 337 337 335 334 334 335 333 333 331 331 330 330 327 325 323 324 321 317 317 317 317 317 318 320 324 322 323 327 329 330 331 332
327 329 337 338 339 336 335 331 333 332 332 332 333 334 333 332 331 328 327 324 323 323 322 323 322 323 322 319 314 314 314 315 312 312 317 322 321 320 323 325 327 327 329
327 329 334 337 337 338 334 336 335 333 333 332 332 332 331 329 329 328 325 323 322 321 320 320 319 319 318 316 313 311 312 313 313 312 314 319 319 318 319 322 324 326 326
327 331 337 337 337 333 332 333 335 334 332 332 329 326 328 327 327 325 323 323 321 321 320 318 318 319 318 316 313 312 311 312 311 313 313 312 318 319 320 321 323 324 325
326 328 335 336 331 330 331 332 332 326 324 325 325 326 325 325 325 325 323 323 323 323 321 320 320 319 318 318 314 313 312 313 312 312 313 312 310 318 321 323 322 324 323
328 327 329 335 331 328 331 327 327 328 326 325 326 325 325 325 325 324 323 322 323 324 321 320 318 317 316 315 314 314 311 311 312 312 312 311 310 309 316 322 323 322 321
325 328 331 330 328 326 327 326 326 326 325 323 322 323 322 322 324 322 321 322 323 321 320 320 318 317 315 315 315 313 313 311 310 312 311 311 310 310 309 316 320 319 320
327 327 330 328 325 325 326 326 323 322 322 322 321 319 321 319 320 320 319 320 322 318 317 317 318 316 315 315 316 315 314 314 313 310 310 312 311 311 310 309 313 314 317
326 325 327 326 326 324 323 319 317 315 317 318 318 318 317 318 317 316 315 315 314 313 314 314 312 311 311 313 313 312 312 313 315 314 313 312 311 310 309 309 310 308 310
325 324 323 322 320 318 317 317 317 317 316 316 317 316 317 316 315 312 313 312 312 310 310 311 311 309 308 309 307 307 302 305 309 311 313 313 312 312 310 309 309 308 308
320 319 317 316 315 316 317 315 314 314 313 312 312 312 313 314 313 312 312 312 311 309 307 307 308 306 304 305 306 303 299 298 302 306 307 310 311 313 313 313 310 310 309
317 318 316 316 315 314 315 313 312 310 309 312 314 312 312 312 311 310 309 309 309 308 306 307 306 306 304 301 303 306 302 299 296 296 302 305 307 309 308 311 310 310 308
317 318 317 315 314 314 313 312 311 312 311 311 310 309 309 309 308 308 307 305 306 305 305 306 304 303 303 301 299 298 296 296 296 293 292 294 298 301 305 307 307 307 307
317 317 316 314 313 314 313 313 311 308 308 307 307 305 304 304 304 305 305 305 305 304 303 303 303 301 298 298 298 297 295 294 293 292 291 291 291 295 298 301 305 304 305

GFSSE_sfc_thetae_006.txt.gz
Theta_e
341 346 348 349 350 349 348 348 349 348 348 348 348 348 347 346 345 346 346 346 346 346 345 345 345 345 347 347 346 345 345 346 345 344 344 346 342 341 344 345 343 340 345
344 345 346 348 349 350 349 348 348 348 349 348 348 347 347 345 343 342 343 344 344 343 343 343 343 343 342 342 341 342 343 343 343 342 342 340 340 340 340 343 343 340 344
344 345 346 347 350 351 350 350 349 350 349 348 347 346 345 343 341 341 342 342 341 340 340 340 339 339 339 339 339 341 341 342 341 341 342 332 330 339 337 342 342 343 343
344 344 345 347 349 350 350 350 349 349 349 348 346 345 343 341 340 340 339 341 338 338 338 338 338 339 338 338 338 338 338 339 339 339 332 334 336 335 333 339 341 341 342
344 345 346 346 347 348 348 349 349 349 348 347 345 343 341 340 339 338 337 337 335 335 335 335 335 335 335 336 336 337 336 337 337 334 328 331 328 332 335 338 338 341 342
345 343 343 344 346 348 348 348 347 347 345 344 343 342 340 339 337 336 334 333 332 332 332 332 330 330 331 332 333 333 333 333 334 326 328 332 330 335 336 337 339 339 341
343 346 346 343 345 347 348 347 345 344 344 343 343 341 338 337 336 335 333 331 330 330 329 329 328 328 328 329 330 331 332 331 326 322 325 329 328 333 334 336 334 338 339
342 345 347 346 345 345 345 344 342 341 342 342 341 340 337 336 335 333 332 330 329 328 327 327 327 327 327 327 328 330 329 330 326 321 326 328 331 335 333 336 337 338 338
342 342 342 342 342 340 339 338 339 340 340 339 339 338 337 335 335 334 333 331 329 327 327 326 327 327 326 327 328 327 327 329 323 319 325 327 332 337 336 335 337 339 339
336 337 334 335 335 334 335 336 337 337 336 337 337 335 334 333 334 334 333 332 331 330 329 329 329 328 327 327 327 327 327 327 320 318 322 326 336 338 338 337 340 340 340
331 331 330 330 330 331 331 335 336 337 335 334 335 334 332 329 327 328 330 330 332 330 330 330 331 329 327 326 326 327 327 320 319 318 322 328 334 335 335 335 335 337 338
325 327 328 327 328 329 333 332 331 333 331 331 331 330 329 328 328 328 329 331 331 330 331 331 331 330 328 319 319 320 312 315 315 313 321 328 332 333 331 331 335 336 336
324 328 328 329 329 326 327 327 327 329 329 329 330 329 328 329 324 327 323 324 324 327 324 326 325 323 321 318 318 314 309 308 307 310 313 326 329 330 331 329 329 333 335
324 326 326 327 327 323 325 327 327 327 328 328 328 327 324 322 319 318 318 320 319 318 320 320 320 320 317 319 318 314 308 306 306 308 309 323 327 329 329 328 327 330 331
325 326 326 325 324 323 322 324 324 325 327 327 327 326 322 320 317 317 316 315 314 313 314 313 315 314 313 314 313 311 308 306 306 307 307 318 325 327 327 326 325 326 327
327 325 327 328 327 325 324 323 324 323 322 323 324 322 321 319 318 317 315 315 315 315 315 313 312 312 312 313 313 313 310 306 305 305 307 308 322 324 326 325 325 325 325
327 328 328 328 326 324 322 324 324 317 318 318 317 316 317 317 316 315 313 312 313 315 314 313 312 312 312 312 311 313 312 311 306 306 306 307 310 320 322 324 326 327 325
327 327 328 326 327 321 320 319 317 317 315 314 315 315 316 316 314 312 311 310 312 312 311 310 311 310 309 308 308 309 310 310 309 307 307 306 308 310 316 320 322 324 326
327 326 324 325 323 321 319 317 315 314 314 312 311 309 313 313 313 310 308 308 310 308 307 307 307 307 306 305 306 304 306 308 309 311 308 307 306 308 308 313 319 320 323
322 321 320 322 321 315 311 311 311 311 310 308 307 309 310 310 309 307 307 307 307 306 304 304 303 303 303 303 305 304 303 305 306 306 307 309 309 309 308 307 306 313 318
311 312 311 312 314 310 309 309 309 305 306 306 306 309 309 309 309 307 305 306 305 304 302 302 302 301 301 302 299 301 300 301 302 303 304 303 305 304 304 305 307 306 310
307 310 310 309 308 309 310 309 307 305 305 306 311 309 308 307 306 305 303 302 303 302 300 300 300 299 300 300 298 297 294 298 297 301 301 300 299 301 302 304 305 307 306
304 305 306 305 306 307 307 305 305 305 306 306 305 304 304 303 303 302 301 301 301 300 299 298 299 298 297 298 298 297 292 290 293 297 297 295 295 296 298 302 303 303 307
303 303 304 305 305 305 305 304 304 303 302 303 302 300 299 300 301 301 300 300 300 300 298 298 300 297 297 295 297 299 296 294 292 290 292 295 294 295 294 297 297 300 307
304 303 303 305 305 304 303 303 303 301 300 301 299 297 297 298 299 299 300 300 299 298 297 296 297 295 295 294 294 294 293 293 295 290 287 289 292 292 293 293 294 299 301
304 303 302 303 304 304 303 302 303 300 299 297 295 294 295 297 297 298 299 296 295 295 295 294 293 293 292 292 292 292 291 290 289 288 288 288 288 289 291 292 292 294 296

GFSSE_sfc_thetae_009.txt.gz
Theta_e
341 344 347 350 349 349 348 348 347 347 347 347 345 345 345 344 343 344 345 345 345 343 343 343 343 343 343 343 343 343 343 343 343 343 343 343 340 338 342 344 340 340 343
343 344 346 348 349 349 349 348 347 347 348 346 345 345 344 342 341 342 342 342 341 339 339 340 340 341 340 340 340 340 340 341 341 341 340 338 339 340 339 342 342 340 342
342 344 345 347 349 349 349 349 349 349 347 346 345 344 342 341 341 340 340 339 337 337 338 338 338 338 338 338 338 339 339 339 340 340 340 330 330 338 338 342 340 342 341
342 343 345 347 348 349 349 348 348 348 347 346 345 343 341 340 339 338 337 338 336 335 336 335 335 335 335 336 336 337 337 336 337 338 329 331 335 336 333 337 340 339 340
341 343 346 346 347 348 349 348 348 348 347 346 344 342 340 339 337 335 335 335 334 333 333 332 332 331 332 332 332 332 332 332 334 329 326 329 329 333 336 336 337 339 341
340 342 343 343 345 348 348 348 347 347 344 343 343 340 339 337 335 333 333 332 331 331 331 329 328 328 329 329 329 329 329 329 329 321 323 329 331 335 337 336 338 338 340
341 343 343 342 345 346 347 346 346 344 342 343 341 339 338 336 334 333 331 330 330 329 329 328 328 327 327 327 327 328 329 329 323 318 320 324 327 335 336 336 336 336 339
342 345 344 344 344 344 345 343 342 341 342 341 341 339 337 335 334 332 330 329 328 328 328 328 328 328 327 327 327 328 328 328 324 317 319 327 331 336 338 334 337 338 338
341 342 344 345 343 341 339 338 338 339 339 339 339 338 337 335 334 333 331 329 328 327 328 328 328 328 328 327 328 328 327 328 319 317 320 324 333 337 338 337 338 338 338
339 339 338 335 335 333 334 336 337 336 336 337 337 335 333 332 333 334 332 332 331 329 329 330 329 329 328 328 328 327 326 324 317 315 318 322 333 337 336 336 337 338 339
334 331 330 330 330 329 330 334 336 336 335 334 334 333 330 326 325 326 330 330 331 331 330 330 331 330 329 327 326 327 323 312 313 313 313 325 331 334 335 335 336 335 336
326 327 328 327 327 328 333 331 329 331 329 329 329 329 327 326 326 327 327 330 331 331 331 331 331 330 329 320 317 321 312 308 309 308 310 323 327 330 333 333 334 333 335
325 327 326 326 326 327 328 328 327 328 327 327 328 327 326 328 325 325 323 322 321 325 322 324 323 321 320 318 317 316 314 308 305 306 310 319 324 329 331 331 333 330 332
323 325 326 326 325 324 325 325 325 326 327 327 328 327 324 322 319 318 318 316 314 313 313 317 317 318 316 315 316 316 314 308 305 305 307 318 322 326 327 328 329 330 331
324 325 326 327 325 323 324 325 325 325 328 328 327 326 324 319 315 315 314 313 313 313 313 312 311 311 311 312 312 312 311 309 307 305 305 315 319 323 326 327 328 328 329
324 325 324 326 324 322 321 323 323 324 326 326 325 323 320 317 316 315 313 312 312 313 313 312 311 310 310 310 310 311 311 310 307 306 305 305 315 319 324 326 327 328 328
324 325 325 324 324 321 321 321 321 322 321 321 318 317 317 316 314 313 310 309 310 311 309 308 308 308 306 307 306 308 309 309 309 307 306 305 306 313 318 322 324 328 329
323 324 325 327 323 322 320 320 318 315 313 314 315 313 314 314 312 309 307 306 307 308 307 306 306 304 303 303 303 303 304 306 307 308 307 305 305 306 309 313 316 320 323
323 323 323 326 324 321 318 317 315 312 310 309 309 310 310 310 309 306 305 306 307 306 304 303 303 303 301 301 302 301 301 302 302 308 306 306 305 304 304 307 311 312 315
317 320 320 320 318 315 313 310 310 311 310 309 307 307 308 308 307 306 305 304 305 302 301 301 300 301 300 301 302 301 299 300 300 302 302 304 302 301 301 301 304 305 311
311 312 313 315 316 312 309 309 309 304 305 306 307 308 307 306 305 302 301 301 302 300 299 299 299 299 298 299 297 298 297 296 298 300 300 299 299 300 300 301 301 301 303
309 310 310 309 309 309 310 308 307 306 305 309 308 305 304 303 301 301 299 299 299 299 298 297 297 297 297 298 296 295 292 295 296 298 297 297 295 297 298 299 299 297 297
304 305 305 305 306 307 309 307 304 304 304 303 301 300 299 301 300 300 299 299 299 298 296 296 296 296 294 296 296 294 290 288 290 294 295 293 292 293 294 296 297 296 297
300 301 302 303 303 304 304 303 302 301 301 301 299 296 296 299 298 299 298 298 297 297 295 296 296 293 293 292 294 296 293 291 287 287 290 292 292 293 292 293 293 295 297
302 301 301 303 303 303 302 302 302 300 298 298 295 295 295 297 297 298 297 297 297 296 294 293 292 292 292 290 290 290 291 291 290 288 286 287 289 290 292 291 292 292 295
301 301 300 301 302 302 301 300 300 297 296 294 293 294 294 295 296 297 298 296 295 294 292 292 291 290 290 290 290 289 289 290 289 289 287 287 287 289 289 291 290 291 292

GFSSE_sfc_thetae_012.txt.gz
Theta_e
340 344 348 349 349 348 347 346 346 346 347 347 345 345 344 343 343 343 344 344 343 341 341 341 342 342 342 342 341 341 342 341 342 343 343 341 341 341 342 342 341 340 344
342 345 346 348 349 349 348 347 346 347 347 345 345 344 343 342 341 341 340 341 340 338 339 339 339 339 339 339 339 339 339 339 340 340 341 338 339 339 339 340 341 340 342
342 345 345 346 348 349 348 347 348 347 346 345 344 342 341 340 339 339 338 340 337 337 336 336 336 336 336 336 336 337 336 336 337 337 336 330 330 340 339 340 340 341 341
342 343 345 346 347 348 347 348 348 347 346 345 344 341 340 339 337 336 336 338 335 334 334 333 332 332 332 332 331 330 330 331 332 332 327 329 331 339 338 338 339 339 340
340 343 345 345 346 347 348 348 347 347 346 345 343 340 339 337 335 334 334 335 333 332 330 330 329 328 328 329 328 328 329 329 328 323 322 327 331 332 338 338 338 338 339
338 341 342 343 346 348 348 348 347 346 345 344 342 340 338 336 334 333 332 331 330 330 329 329 328 328 327 328 329 328 328 329 326 317 320 324 328 336 339 340 338 337 339
340 340 342 342 345 347 348 347 346 344 342 342 341 340 337 335 333 331 331 330 329 329 330 329 329 328 328 328 328 328 328 328 321 316 318 325 327 337 339 338 337 337 337
341 342 341 343 344 344 345 345 343 342 341 341 340 339 336 335 334 331 330 330 328 329 329 330 329 329 329 329 330 329 328 329 320 316 319 322 331 337 339 338 339 337 336
343 342 341 340 341 341 340 339 339 339 340 339 338 337 337 334 333 332 331 331 329 330 330 331 331 330 330 330 329 329 326 326 315 316 319 320 331 335 337 336 338 338 337
339 339 339 340 341 336 334 336 336 336 337 336 337 335 333 332 332 332 331 330 331 330 330 331 331 331 331 330 329 328 326 318 311 312 313 316 330 332 335 336 335 336 336
337 337 337 337 335 331 330 334 336 336 335 335 334 333 329 324 324 324 330 331 332 331 331 331 332 331 330 328 326 326 324 311 309 309 309 317 326 327 330 334 336 335 335
331 332 332 329 327 327 333 330 328 329 329 328 328 328 326 325 324 326 327 329 330 330 331 331 331 330 327 320 318 321 316 313 308 307 307 318 323 325 328 331 335 335 333
329 329 327 326 326 325 327 326 325 326 325 326 326 325 325 326 324 323 322 320 319 323 318 319 320 319 319 318 316 316 316 315 310 307 308 318 320 324 326 327 332 333 333
323 325 326 325 324 324 324 324 324 325 325 325 326 326 324 322 318 317 315 313 312 312 312 313 314 314 313 312 312 313 314 313 310 308 307 316 318 321 324 326 328 332 333
321 323 323 324 323 323 323 323 322 323 325 325 325 325 322 319 314 314 313 313 312 312 312 310 310 310 310 310 310 310 310 310 309 308 306 313 316 318 322 324 326 326 328
322 322 324 324 323 322 321 322 322 323 324 325 323 322 320 316 314 314 312 311 309 310 309 309 309 308 307 307 306 307 307 307 308 308 307 307 313 315 317 320 322 323 325
321 322 322 323 321 321 320 321 323 323 322 321 318 318 317 315 314 310 307 306 306 308 307 306 306 304 303 304 303 304 304 305 305 307 307 306 306 309 311 313 315 318 320
321 322 323 325 323 323 320 320 321 317 317 314 313 314 312 311 308 306 305 305 307 306 304 303 303 301 301 301 300 301 301 302 303 306 305 305 304 303 304 308 310 311 313
322 323 322 323 323 322 319 318 316 312 311 307 308 307 307 308 307 305 306 306 304 302 301 301 300 300 300 300 300 300 299 299 300 306 304 302 301 301 300 303 305 306 308
319 320 319 319 319 317 315 311 311 310 309 309 307 306 307 307 306 306 303 302 301 299 298 298 298 299 299 299 301 299 298 299 300 301 300 300 300 299 299 299 299 299 302
313 316 314 314 314 312 308 309 307 306 307 306 304 304 305 305 303 300 299 299 299 298 297 298 297 297 297 298 296 295 297 296 298 300 299 297 298 299 299 298 298 297 297
309 312 313 310 309 309 309 307 308 305 304 304 301 300 300 300 299 299 298 298 297 297 296 296 296 295 295 296 294 293 290 293 295 297 297 296 294 296 296 297 297 297 296
306 304 305 305 305 306 307 304 302 303 303 301 299 296 297 298 298 298 298 297 297 296 296 295 294 294 292 294 294 293 289 286 290 293 294 294 292 293 293 294 296 296 296
299 300 301 302 302 303 302 302 301 299 299 298 296 294 295 297 298 298 298 297 296 295 297 294 294 292 293 290 292 294 292 291 288 286 290 292 291 293 292 293 294 295 295
300 300 300 301 302 301 300 301 300 297 297 295 294 294 294 296 297 297 296 296 296 294 293 292 291 290 290 289 288 289 289 290 290 289 285 287 291 292 292 292 292 293 294
301 299 299 300 299 299 299 298 297 296 294 294 295 295 294 294 295 295 296 294 293 292 292 291 290 289 288 288 288 288 288 287 285 286 284 285 285 288 289 291 291 292 293

GFSSE_sfc_thetae_015.txt.gz
Theta_e
342 346 347 347 348 347 347 346 346 347 348 347 346 345 345 343 343 344 344 343 342 339 340 340 340 340 341 341 341 340 340 339 340 341 341 340 340 341 340 342 342 337 344
345 347 345 347 348 347 347 347 347 347 347 345 344 343 343 342 341 340 341 341 340 338 338 338 338 337 337 337 336 336 336 336 336 337 338 338 338 341 341 342 342 339 342
345 347 346 345 347 347 347 348 348 348 346 345 343 341 341 339 339 338 339 340 338 335 335 334 333 332 332 331 330 330 331 332 332 333 334 336 336 341 341 342 342 342 341
346 347 345 345 347 347 347 348 348 347 346 345 342 341 339 338 337 337 336 338 336 332 331 330 329 329 329 329 329 330 330 330 328 328 332 334 337 337 340 339 338 338 339
345 346 345 344 346 347 347 348 348 347 346 345 342 340 338 336 335 335 335 336 332 330 330 329 328 328 328 329 330 329 329 330 327 328 330 336 337 336 339 339 338 338 338
344 345 343 342 345 347 347 348 347 346 345 344 342 340 337 335 333 333 333 333 331 332 331 331 330 329 328 330 330 329 329 329 327 329 331 335 336 338 340 339 339 337 337
343 345 345 342 344 346 348 348 346 344 343 342 342 340 337 335 332 331 332 331 331 331 331 331 330 330 330 331 330 328 328 328 325 328 329 331 335 337 338 337 339 338 336
342 345 346 344 344 345 346 345 343 341 341 341 340 339 336 334 333 332 331 330 330 331 331 331 330 330 331 330 330 330 327 327 320 321 324 326 332 335 337 336 339 339 338
344 343 345 346 345 341 340 340 339 339 339 339 338 337 336 334 332 333 333 332 330 332 333 332 332 332 331 331 330 329 327 322 320 319 318 320 329 332 335 336 337 337 336
342 343 343 344 344 344 344 337 337 337 337 337 336 335 333 332 331 331 329 332 332 332 332 332 333 333 332 331 329 328 327 322 322 320 319 318 326 328 330 331 334 334 334
338 339 340 339 340 342 342 339 336 337 336 335 335 333 330 332 332 331 331 331 332 332 332 333 332 332 331 329 327 327 326 326 325 323 321 318 322 326 328 331 335 336 335
334 336 338 338 337 341 337 338 337 335 334 334 334 335 334 334 334 333 332 329 328 329 329 328 328 328 328 328 326 325 325 326 325 324 322 319 322 325 326 330 332 333 334
335 333 335 335 337 337 335 335 334 334 334 334 335 334 335 335 335 335 334 331 329 324 325 325 327 327 326 324 323 323 323 322 322 320 319 319 321 325 327 327 328 331 332
332 334 336 337 335 334 334 333 332 331 332 333 335 335 335 334 333 330 327 325 325 324 324 323 323 323 322 321 320 320 319 317 315 316 317 317 319 323 325 327 327 328 328
329 332 333 332 331 331 331 332 332 332 332 333 334 335 335 332 329 327 325 323 322 322 320 320 320 319 318 317 317 316 314 314 314 314 316 315 317 320 321 323 324 325 325
327 329 330 330 329 329 329 330 331 331 331 331 330 329 330 329 327 325 320 318 318 319 318 318 318 315 314 313 313 313 312 312 313 314 314 315 311 311 314 316 317 317 319
327 329 329 328 328 329 329 327 326 323 324 325 326 323 322 323 319 318 317 317 317 316 316 316 315 313 313 310 310 310 310 310 310 313 313 312 311 308 308 310 311 312 313
328 329 330 328 328 326 323 321 318 318 320 320 321 319 318 317 317 317 316 315 314 313 312 312 311 310 309 308 307 308 308 307 309 314 310 309 309 308 308 306 307 307 308
328 328 328 329 326 323 320 317 316 315 316 316 317 316 315 315 314 314 313 312 311 310 310 308 308 308 306 305 303 305 304 304 308 310 309 307 307 307 306 305 304 304 305
326 327 327 325 321 319 318 316 316 316 315 315 314 312 311 312 312 310 309 310 309 308 307 307 306 306 305 304 300 302 302 305 310 310 306 306 305 305 305 304 304 303 303
323 324 324 322 319 317 315 316 316 317 314 311 310 310 309 309 308 309 308 308 308 307 307 307 306 303 302 304 301 299 300 305 306 306 305 304 303 302 303 302 302 301 301
322 321 321 319 317 318 319 318 318 315 313 309 307 307 307 307 307 307 308 307 308 307 306 305 304 301 302 303 297 297 293 296 301 303 302 302 301 301 301 301 301 301 301
320 318 315 315 315 315 315 313 312 313 311 309 306 305 305 306 306 307 307 308 307 306 305 303 302 301 298 300 302 296 291 290 294 298 298 299 300 299 299 299 299 299 300
309 311 312 311 310 309 310 311 310 309 309 306 304 305 306 306 307 306 306 306 305 304 303 302 301 299 297 294 296 298 296 295 289 287 294 296 297 295 296 297 297 298 299
308 309 309 308 308 308 309 310 309 307 305 305 305 305 305 305 305 304 304 304 304 302 301 300 299 296 296 293 293 292 292 292 292 289 285 288 292 293 295 293 295 296 296
307 307 307 306 306 307 308 308 308 306 304 305 305 305 305 305 306 305 303 303 302 301 299 298 297 295 295 295 294 292 290 288 287 287 286 286 286 289 291 292 293 293 294

GFSSE_sfc_thetae_018.txt.gz
Theta_e
344 346 348 349 348 348 347 347 347 347 348 347 346 345 344 343 343 343 343 343 342 340 340 341 340 340 339 339 338 337 337 337 338 339 339 339 341 342 342 341 343 338 343
346 345 345 348 348 347 347 347 348 348 347 345 343 343 342 341 341 342 342 342 340 337 336 335 334 333 332 331 331 331 332 332 334 335 337 337 343 342 341 341 343 340 341
345 346 345 346 347 347 347 348 348 348 346 344 342 341 340 339 339 339 340 340 336 334 333 331 330 329 329 330 330 331 331 330 330 331 335 336 337 341 341 340 340 339 339
346 345 345 345 346 347 348 348 348 347 345 343 341 340 338 338 337 337 336 337 335 331 330 329 328 329 330 331 331 331 331 331 329 331 332 337 336 339 339 339 338 338 339
345 347 347 344 345 347 346 347 347 347 346 344 342 339 337 336 335 335 335 336 332 332 331 330 329 330 330 330 330 329 330 330 330 330 329 336 337 338 339 337 338 338 337
345 345 342 342 344 345 346 347 347 346 345 343 342 339 336 334 333 333 333 334 332 332 332 331 330 330 330 332 329 328 329 329 329 328 330 333 336 338 339 338 338 337 336
343 346 345 340 342 344 345 348 346 345 343 342 342 340 336 332 331 331 332 333 333 332 331 331 331 331 331 332 330 328 327 327 322 321 324 327 331 335 338 337 336 335 334
344 346 345 342 341 343 346 345 343 343 342 341 340 338 335 333 333 331 332 331 332 331 331 331 331 331 331 331 330 329 326 325 323 322 321 322 330 332 335 336 336 335 334
346 346 345 344 344 341 341 340 339 340 340 339 339 338 335 334 334 333 332 331 331 331 331 332 332 332 332 331 330 328 328 322 325 323 320 321 327 328 330 331 334 334 333
344 345 344 346 345 345 345 338 338 338 337 337 337 335 333 333 333 331 332 333 332 332 332 332 332 332 332 331 329 329 328 327 325 324 324 324 325 328 329 330 330 332 333
341 342 343 342 343 343 342 341 337 337 336 336 335 333 330 334 334 332 330 331 331 332 332 331 331 331 330 331 329 327 327 323 324 323 324 323 324 327 327 328 332 333 332
335 338 339 340 340 343 338 338 336 333 332 335 335 335 336 338 337 333 333 329 328 327 326 326 327 328 328 324 324 326 323 324 323 323 323 322 324 327 329 328 328 330 333
335 336 337 339 339 339 336 334 331 332 335 337 338 339 340 340 340 336 334 332 334 326 330 329 329 325 326 324 322 323 322 321 320 321 319 320 323 326 328 328 328 329 329
335 336 335 337 339 339 334 331 332 333 336 338 340 341 341 337 338 335 331 333 334 330 327 326 325 326 324 322 322 322 320 319 318 318 319 319 322 323 324 325 325 325 326
330 334 337 338 337 336 334 333 335 339 338 340 340 340 341 335 335 332 334 331 330 328 326 324 323 322 320 319 320 319 317 317 317 317 318 314 314 317 319 320 320 320 320
329 333 336 334 335 334 334 336 336 336 335 336 336 337 332 331 332 332 331 326 326 325 323 322 320 318 317 317 316 316 316 316 316 316 316 317 311 311 313 314 315 315 315
329 333 334 335 334 335 332 329 325 325 328 331 331 327 325 326 326 325 325 323 322 323 321 320 318 318 316 315 314 314 314 315 314 314 315 314 313 310 309 309 310 310 311
330 333 335 334 334 329 325 323 321 322 325 326 326 327 325 322 322 324 322 323 320 319 317 317 315 314 313 312 312 311 312 312 311 313 314 313 313 311 311 308 307 307 307
332 334 334 335 333 331 326 319 322 322 322 322 322 322 321 320 320 322 319 318 317 316 315 313 312 311 310 310 309 309 310 310 310 310 313 312 312 311 309 310 307 307 305
333 335 334 332 332 329 325 326 325 322 321 321 320 319 317 317 316 317 316 315 314 313 312 312 311 311 310 309 307 306 308 307 308 310 310 308 308 308 307 306 306 305 306
332 333 332 330 330 329 326 323 321 321 321 319 317 316 315 314 314 314 313 313 313 312 312 311 310 309 307 308 305 303 304 305 307 307 307 306 307 306 306 305 305 303 303
330 331 331 329 328 326 325 325 325 323 319 316 316 314 313 312 312 311 312 312 312 310 310 310 308 305 305 306 302 301 297 300 302 305 304 303 304 304 303 303 302 302 302
328 329 328 326 324 324 323 322 320 320 317 316 315 314 312 312 311 311 311 311 310 309 307 308 307 304 302 303 302 299 295 293 296 299 301 300 302 301 301 300 300 300 301
325 323 322 322 321 318 316 317 317 316 315 313 312 312 313 312 312 311 310 310 309 308 307 307 305 303 300 298 299 299 299 297 292 291 297 298 297 297 298 297 298 298 298
319 319 318 316 315 316 317 317 315 313 311 312 312 310 311 311 311 309 309 308 308 308 307 305 303 301 301 299 298 296 295 295 294 291 288 291 294 295 295 296 295 296 296
315 316 316 314 314 314 314 313 312 310 308 308 307 306 305 305 305 306 307 308 308 307 305 303 301 301 300 298 296 295 293 291 290 290 288 289 289 292 294 295 295 295 295